This is the latest recevied weather packets stored in our database for station/object KB4RFE. If no packets are shown the sender has not sent any weather packets the latest 10 day(s).
| Time | Temp. | Humidity | Pressure | Rain* | Wind** | Luminosity | Snow |
|---|---|---|---|---|---|---|---|
| 1788551390 | 31.11° C | 76% | 1018.6 hPa | 0 mm | - | 616 W/m² | - |
| 1788551085 | 31.67° C | 77% | 1018.5 hPa | 0 mm | - | 621 W/m² | - |
| 1788550780 | 31.67° C | 72% | 1018.7 hPa | 0 mm | - | 629 W/m² | - |
| 1788550475 | 31.67° C | 75% | 1018.8 hPa | 0 mm | - | 643 W/m² | - |
| 1788550171 | 31.67° C | 75% | 1018.7 hPa | 0 mm | - | 665 W/m² | - |
| 1788549866 | 31.11° C | 76% | 1018.8 hPa | 0 mm | - | 692 W/m² | - |
| 1788549562 | 31.11° C | 77% | 1018.9 hPa | 0 mm | - | 812 W/m² | - |
| 1788549258 | 31.67° C | 76% | 1019 hPa | 0 mm | - | 732 W/m² | - |
| 1788548955 | 31.67° C | 76% | 1018.8 hPa | 0 mm | - | 707 W/m² | - |
| 1788548650 | 31.67° C | 76% | 1019 hPa | 0 mm | - | 734 W/m² | - |
| 1788548346 | 31.67° C | 74% | 1018.9 hPa | 0 mm | - | 731 W/m² | - |
| 1788548042 | 31.67° C | 77% | 1019 hPa | 0 mm | - | 734 W/m² | - |
| 1788547741 | 31.67° C | 75% | 1019 hPa | 0 mm | - | 745 W/m² | - |
| 1788547436 | 31.67° C | 76% | 1018.9 hPa | 0 mm | - | 759 W/m² | - |
| 1788547131 | 31.67° C | 75% | 1018.9 hPa | 0 mm | - | 781 W/m² | - |
| 1788546827 | 31.67° C | 73% | 1018.9 hPa | 0 mm | - | 791 W/m² | - |
| 1788546522 | 31.67° C | 74% | 1019.1 hPa | 0 mm | - | 798 W/m² | - |
| 1788546216 | 31.67° C | 74% | 1019.2 hPa | 0 mm | - | 803 W/m² | - |
| 1788545912 | 31.67° C | 70% | 1019.1 hPa | 0 mm | - | 808 W/m² | - |
| 1788545612 | 31.67° C | 72% | 1019.1 hPa | 0 mm | - | 814 W/m² | - |
| 1788545307 | 31.67° C | 73% | 1018.9 hPa | 0 mm | - | 817 W/m² | - |
| 1788545003 | 31.67° C | 73% | 1019.1 hPa | 0 mm | - | 820 W/m² | - |
| 1788544702 | 31.67° C | 76% | 1019.2 hPa | 0 mm | - | 820 W/m² | - |
| 1788544401 | 31.67° C | 74% | 1019.3 hPa | 0 mm | - | 819 W/m² | - |
| 1788544100 | 31.67° C | 75% | 1019.2 hPa | 0 mm | - | 818 W/m² | - |
* Rain latest hour (hover to see other rain measurements)
** Current wind speed in m/s (hover to see current wind gust speed)